Regional Weather Roundup
Issued by NWS Newport/Morehead, NC

Current Version | Previous Version | Text Only | Print | Product List | Glossary Off
Versions: 1 2 3 4 5 6 7 8 9 10 11 12 13 14 15 16 17 18 19 20 21 22 23 24 25 26 27 28 29 30 31 32 33 34 35 36 37 38 39 40 41 42 43 44 45 46 47 48 49 50

000
ASUS42 KMHX 051024
RWRMHX
WEATHER ROUNDUP FOR EASTERN NORTH CAROLINA
NATIONAL WEATHER SERVICE NEWPORT/MOREHEAD CITY NC
500 AM EST THU MAR 05 2015

NOTE: "FAIR" INDICATES FEW OR NO CLOUDS BELOW 12,000 FEET
WITH NO SIGNIFICANT WEATHER AND/OR OBSTRUCTIONS TO VISIBILITY

NCZ015>017-031-032-045>047-102-103-051100-
NORTH COAST

CITY           SKY/WX    TMP DP  RH WIND       PRES   REMARKS
EDENTON        MOCLDY    62  60  94 SW7       29.90R
ELIZABETH CITY CLOUDY    57  57 100 NW3       29.91R
KITTY HAWK     CLOUDY    63  63 100 SW12G20   29.90R
MANTEO         CLOUDY    61  61 100 SW18G28   29.92R

$$

NCZ045>047-081-094-103-104-051100-
CENTRAL COAST

CITY           SKY/WX    TMP DP  RH WIND       PRES   REMARKS
FRISCO         CLOUDY    60  60 100 SW16G25   29.95R FOG
SWANQUARTER      N/A     57 N/A N/A SW15G24   29.88S

$$

NCZ095-097-098-100-101-051100-
SOUTHERN COAST

CITY           SKY/WX    TMP DP  RH WIND       PRES   REMARKS
BEAUFORT       CLOUDY    60  60 100 SW16      29.97S FOG
CEDAR ISLAND     N/A     64 N/A N/A S10G30    30.00R
JACKSONVILLE   CLEAR     67  62  84 SW12G20   29.94S
PINEY ISLAND     N/A    N/A N/A N/A MISG      29.96R
WILMINGTON     CLEAR     64  61  90 SW13      29.97R


$$

NCZ011>013-027>030-043-044-078>080-089-090>093-098-051100-
COASTAL PLAIN

CITY           SKY/WX    TMP DP  RH WIND       PRES   REMARKS
AHOSKIE        CLOUDY    53  52  97 N6        29.91R FOG
CLINTON        CLOUDY    65  63  91 S5        29.92S
ELIZABETHTOWN  MOCLDY    67  61  80 SW7G17    29.94R
GOLDSBORO      PTCLDY    65  65 100 SW12G18   29.88S
GREENVILLE     PTCLDY    64  63  94 SW12      29.91S
HAVELOCK       CLOUDY    66  63  90 SW18G28   29.96R
KENANSVILLE    CLEAR     64  61  88 SW3       29.94R
KINSTON        PTCLDY    66  62  88 S14       29.91S
NEW BERN       PTCLDY    66  63  90 SW9       29.94R
RICHLANDS      PTCLDY    64  61  88 SW10      29.94S
ROCKY MOUNT    MOCLDY    65  61  87 S12       29.87S
WASHINGTON     PTCLDY    66  63  90 SW7       29.91R
WHITEVILLE     CLEAR     65  61  85 S8        29.94S

$$

AMZ130-135-150-152-154-156-158-170-250-252-270-ANZ085-086-088-633-658-670-051100-
MARINE OBSERVATIONS

STATION/POSITION TIME  TEMP    WIND        PRES    WAVE   SWELL
                       AIR SEA DIR/SP/G            HT/PER HT/PER
                 (UTC) (F)     (DEG/KT/KT) (MB)    (FT/S) (FT/S)
CHESAPEAKE LIGHT 1000   41      40/ 15/ 16 1013.8
64 E VA BEACH    0950   51 52  260/ 10/ 14 1012.5    6/ 7   5/ 7
DUCK             0900   60 35  210/ 12/ 15 1011.3
2 E DUCK         0911      36                N/A     2/11
10 NE DUCK       0922      37                N/A     4/ 7
OREGON INLET     0900   51 50  200/ 16/ 19 1013.0
HATTERAS CG      0900   60 48  210/ 14/ 21 1014.0
CAPE LOOKOUT     1000   61     210/ 13/ 18 1014.9
BEAUFORT LAB     0900   53 47  200/  6/ 10 1013.5
27 SE WRIGHTSVLE NOT AVBL
5 SE WRIGHTSVLE  NOT AVBL
225 S CAPE HAT   0950   73 73  220/ 19/ 25 1019.9    6/ 5   3/11
41 SE CHARLESTON 0950   70 69  210/ 19/ 23 1015.3    6/ 6   2/ 9

$$



USA.gov is the U.S. government's official web portal to all federal, state and local government web resources and services.